COSMOS 249 DEB, 14412

Orbit data source: Space-Track

COSMOS 249 DEB, 14412 is space debris in LEO originally from a launch on Sun, 20 Oct 1968 UTC launched from the Tyuratam Missile And Space Complex (TTMTR). Debris objects in space refer to the collection of defunct objects orbiting the Earth. Examples of debris include non-operational satellites, rocket bodies, and fragments generated from explosions, collisions, or faulty payload assembly.

Loading next visibility...
Identifier
14412, 1968-091CN
Orbit
LEO
Country
Flag of CISCIS
Related business
Manufacturer
Unknown
Mission
Spacecraft
Bus & Motor
Unknown
Mass
Unknown
Launch date (UTC)
1968-10-20 (58 years ago)
Launch vehicle
Unknown
Launch site
Tyuratam Missile And Space Complex (TTMTR)
Object type
Payload
Rocket body
Debris
Shape & HBR
Unknown shape, 0.1 m
Radar Cross Section
Medium (>0.1 m² and <1 m²)

Expand to show TLE details & history
Last TLE update: 1 week ago

TLE from 1 week ago
0 COSMOS 249 DEB
1 14412U 68091CN  26165.83514453  .00000262  00000-0  42338-3 0  9992
2 14412  62.2951  76.6082 0745452 332.0146  24.2558 12.84288602 86870
Epoch: 2026-06-14T20:02Z
TLE epoch observation values (Epoch: 2026-06-14T20:02:36.487Z)
Latitude
-0.00005°
Longitude
-127.17404°
Altitude
810.428 km
Speed
7.694 km/s
True Right ascension
05h 06m 25s
True Declination
0° 00' 00"
Sunlit
Object was in daylight at epoch
Visualization orbit readout
Latitude
Unknown
Longitude
Unknown
Altitude
Unknown
Speed
Unknown
Apparent Right ascension
Unknown
Apparent Declination
Unknown
Sunlit
N/A
Visualization observer readout
Local Sidereal Time
20:42:54
Azimuth
Unknown
Elevation
Unknown
Doppler factor
Unknown
Orbital elements
Apogee altitude
1,897.369 km
Perigee altitude
749.164 km
Semi-major axis
7,701.404 km
Eccentricity
0.07455
Inclination
62.2951°
RAAN
76.6082°
Arg. of periapsis
332.0146°
True anomaly
28.08662°
Mean anomaly
24.2558°
Eccentric anomaly
26.13733°
Mean motion
3.21136 °/min
Orbital period
112.1 mins
BSTAR
0.00042338

Documentation

Showing up to 5 results
|